This is the latest recevied weather packets stored in our database for station/object K5OLV. If no packets are shown the sender has not sent any weather packets the latest 10 day(s).
| Time | Temp. | Humidity | Pressure | Rain* | Wind** | Luminosity | Snow |
|---|---|---|---|---|---|---|---|
| 1777672177 | 16.67° C | 64% | 1009.7 hPa | 0 mm | - | 293 W/m² | - |
| 1777671873 | 17.22° C | 67% | 1010 hPa | 0 mm | - | 230 W/m² | - |
| 1777671568 | 17.78° C | 65% | 1010.2 hPa | 0 mm | - | 229 W/m² | - |
| 1777671266 | 17.78° C | 67% | 1010.2 hPa | 0 mm | - | 330 W/m² | - |
| 1777670961 | 17.22° C | 63% | 1010.2 hPa | 0 mm | - | 422 W/m² | - |
| 1777670658 | 16.67° C | 70% | 1010.4 hPa | 0 mm | - | 304 W/m² | - |
| 1777670355 | 16.67° C | 67% | 1010.5 hPa | 0 mm | - | 244 W/m² | - |
| 1777670052 | 16.67° C | 72% | 1010.7 hPa | 0 mm | - | 206 W/m² | - |
| 1777669750 | 16.67° C | 69% | 1010.8 hPa | 0 mm | - | 199 W/m² | - |
| 1777669446 | 16.67° C | 67% | 1010.7 hPa | 0 mm | - | 185 W/m² | - |
| 1777669143 | 16.67° C | 65% | 1010.9 hPa | 0 mm | - | 236 W/m² | - |
| 1777668840 | 16.67° C | 64% | 1011 hPa | 0 mm | - | 212 W/m² | - |
| 1777668537 | 16.67° C | 60% | 1011 hPa | 0 mm | - | 193 W/m² | - |
| 1777668233 | 16.67° C | 61% | 1011.1 hPa | 0 mm | - | 232 W/m² | - |
| 1777667929 | 16.67° C | 61% | 1011 hPa | 0 mm | - | 221 W/m² | - |
| 1777667627 | 16.11° C | 62% | 1011.1 hPa | 0 mm | - | 178 W/m² | - |
| 1777667323 | 16.11° C | 69% | 1011.1 hPa | 0 mm | - | 182 W/m² | - |
| 1777667021 | 15.56° C | 65% | 1011.3 hPa | 0 mm | - | 238 W/m² | - |
| 1777666717 | 16.11° C | 66% | 1011.4 hPa | 0 mm | - | 233 W/m² | - |
| 1777666414 | 16.11° C | 67% | 1011.4 hPa | 0 mm | - | 244 W/m² | - |
| 1777666111 | 16.11° C | 69% | 1011.5 hPa | 0 mm | - | 219 W/m² | - |
| 1777665808 | 16.11° C | 70% | 1011.5 hPa | 0 mm | - | 223 W/m² | - |
| 1777665506 | 16.11° C | 66% | 1011.4 hPa | 0 mm | - | 222 W/m² | - |
| 1777665201 | 16.11° C | 67% | 1011.6 hPa | 0 mm | - | 242 W/m² | - |
| 1777664897 | 15.56° C | 65% | 1011.7 hPa | 0 mm | - | 237 W/m² | - |
* Rain latest hour (hover to see other rain measurements)
** Current wind speed in m/s (hover to see current wind gust speed)